Flag for U.S.A. Weather past 2 weeks in Lakewood, Colorado, U.S.A.

Now
57 °F

Overcast.


Feels Like: 57 °F
Forecast: 55 / 72 °F
Wind: No wind

Location: Centennial Airport

Current Time: Jul 31, 2014 at 1:01:44 AM

Latest Report: Jul 30, 2014 at 11:53 PM


Visibility: 10 mi

Pressure: 30.24 "Hg

Humidity: 90%

Dew point: 54 °F

Location of LakewoodLocation

Historic Weather in Lakewood — Graph

°F

Lakewood temperature yesterday

Maximum temperature yesterday: 61 °F (at 1:53 PM)
Minimum temperature yesterday: 56 °F (at 7:53 PM)
Average temperature yesterday: 58 °F

Past Weeks' High & Low Weather Summary

 TemperatureHumidityPressure
High92 °F (Jul 21, 2:53 PM)96% (Jul 17, 2:53 AM)30.34 "Hg (Jul 17, 2:53 AM)
Low55 °F (Jul 17, 2:53 AM)12% (Jul 19, 1:53 PM)29.78 "Hg (Jul 20, 12:53 AM)
Average71 °F51%30.00 "Hg
* Reported Jul 15 11:53 PM — Jul 30 11:53 PM, Lakewood, Weather by CustomWeather, © 2014

Note: Actual official high and low records may vary slightly from our data, if they occured in-between our weather recording intervals... More about our weather records

Advertising

Lakewood weather history for previous 24 hours

 ConditionsComfort  
Time TempWeatherWind HumidityBarometerVisibility
11:53 PM
Jul 30
57 °FOvercast.No wind90%30.24 "Hg10 mi
10:53 PM57 °FMostly cloudy.5 mph90%30.25 "Hg10 mi
9:53 PM57 °FLight rain. Mostly cloudy.8 mph90%30.25 "Hg10 mi
8:53 PM56 °FLight rain. Fog.6 mph93%30.26 "Hg4 mi
7:53 PM56 °FLight rain. Fog.9 mph90%30.26 "Hg3 mi
6:53 PM58 °FLight rain. Fog.No wind90%30.24 "Hg3 mi
5:53 PM58 °FLight rain. Fog.6 mph93%30.24 "Hg4 mi
4:53 PM58 °FLight rain. Fog.7 mph93%30.24 "Hg3 mi
3:53 PM59 °FLight rain. Fog.7 mph90%30.24 "Hg4 mi
2:53 PM60 °FLight rain. More clouds than sun.5 mph83%30.23 "Hg8 mi
1:53 PM61 °FFog.9 mph83%30.23 "Hg5 mi
12:53 PM58 °FLight rain. Fog.7 mph90%30.24 "Hg3 mi
11:53 AM60 °FLight rain. Fog.7 mph86%30.22 "Hg5 mi
10:53 AM59 °FLight rain. Fog.7 mph90%30.22 "Hg3 mi
10:04 AM57 °FLight rain. Fog.10 mph93%30.34 "Hg1 mi
8:57 AM57 °FLight rain. Fog.6 mph93%30.33 "Hg1 mi
7:53 AM58 °FLight rain. Fog.6 mph90%30.19 "Hg3 mi
6:53 AM57 °FLight rain. Mostly cloudy.9 mph93%30.19 "Hg8 mi
6:00 AM57 °FMostly cloudy.6 mph93%30.30 "Hg10 mi
4:53 AM57 °FLight rain. Fog.6 mph96%30.14 "Hg3 mi
3:53 AM57 °FLight rain. Fog.8 mph96%30.14 "Hg3 mi
2:53 AM58 °FLight rain. Mostly cloudy.7 mph93%30.12 "Hg9 mi
2:01 AM57 °FLight rain. Mostly cloudy.7 mph96%30.27 "Hg10 mi
1:01 AM57 °FRain. Fog.7 mph96%30.27 "Hg3 mi
Weather by CustomWeather, © 2014

See weather overviewHow to use our weather pages